小惑星ダモクレス

(5335) Damocles (1990)

English version
Home page
Total 6,336 html files since Dec. 4, 1995
Updated on November 25, 2005

---------------------------------------------------------------------

・ プロフィール

符号 1991 DA
発見日 1991年2月18日
発見光度 17等
発見者 R. H. McNaught (University of Adelaide)

・ 軌道要素

Perturbed ephemeris below is based on 2-opp unperturbed elements from MPC 20799.
Last observed on 1992 Aug. 22. 

 Epoch = 2448240.50000 TT   T = 2448228.99076 TT
 Peri. =  191.23344         a =    11.8756186 AU
 Node  =  314.10295 J2000.0 e =     0.8670961
 Incl. =   61.88986         q =     1.5783154 AU

・ 光度変化

        H = 13.5  G = 0.15

---------------------------------------------------------------------

軌道要素はMinor Planet & Comet Ephemeris Serviceで計算したものです。
光度グラフはComet for Windowsで作成したものです。

---------------------------------------------------------------------

Copyright(C) 1995-2008 Seiichi Yoshida (comet@aerith.net). All rights reserved.